Location: Prairie State College
(41.5244°N, 87.6382°W)
Time: 05:22:17
(UTC-06:00)

MSX - Visible Passes

Search period start: 21 December 2014 00:00
Search period end: 31 December 2014 00:00
Orbit: 895 x 906 km, 98.8° (Epoch: 15 December)

Date Brightness Start Highest point End Pass type
(mag) Time Alt. Az. Time Alt. Az. Time Alt. Az.
21 Dec 6.2 19:25:38 11° N 19:25:38 11° N 19:25:46 10° N visible
22 Dec 6.2 19:28:25 11° N 19:28:25 11° N 19:28:36 10° N visible
23 Dec 6.2 19:31:12 11° NNW 19:31:12 11° NNW 19:31:26 10° NNW visible
24 Dec 6.2 19:33:59 11° NNW 19:33:59 11° NNW 19:34:15 10° NNW visible
25 Dec 6.2 19:36:45 12° NNW 19:36:45 12° NNW 19:37:04 10° NNW visible
26 Dec 6.2 19:39:31 12° NNW 19:39:31 12° NNW 19:39:53 10° NNW visible
27 Dec 5.8 17:59:13 10° NNE 17:59:13 10° NNE 17:59:16 10° NNE visible
27 Dec 6.2 19:42:16 12° NNW 19:42:16 12° NNW 19:42:42 10° NNW visible
28 Dec 5.8 18:01:57 11° NNE 18:01:57 11° NNE 18:02:14 10° NNE visible
28 Dec 6.2 19:45:01 13° NNW 19:45:01 13° NNW 19:45:31 10° NNW visible
29 Dec 5.8 18:04:42 12° NNE 18:04:42 12° NNE 18:05:10 10° NNE visible
29 Dec 6.2 19:47:45 13° NNW 19:47:45 13° NNW 19:48:19 10° NNW visible
30 Dec 5.7 18:07:26 12° NNE 18:07:26 12° NNE 18:08:06 10° NNE visible
30 Dec 6.1 19:50:29 13° NNW 19:50:29 13° NNW 19:51:08 10° NNW visible
